7 * 24
多渠道服务支持
STARLINK-11404是美国SpaceX星链星座的成员卫星,于2024年11月18日发射入轨,属于星链大规模组网的组成部分。作为低轨通信卫星,它依托星链V2 Mini技术方案,可支持全球宽带互联网接入,部分该批次卫星还具备直连手机通信能力,能够在偏远地区提供基础蜂窝连接服务,助力完善星链覆盖网络,推动全球泛在互联服务落地。
美国
(US)
| 数据来源 | 国际轨道数据 |
| 星历时间: | 2026-09-09T15:57:32+0800 2天前 查看轨道信息 |
| 半长轴: | 6738.03km |
| 偏心率: | 0.0001432 |
| 轨道倾角: | 53.157° |
| 近地点辐角 | 60.366° |
| 升交点赤经 | 216.308° |
| 平近点角 | 299.750° |
| 近地点: | 358.928km |
| 远地点: | 360.858km |
| 周期: | 91.740分钟 |
| 每日圈数: | 15.696521 |